Location: Martin Dies, Jr. State Park
(30.8429°N, 94.1720°W)
Time: 09:12:54
(UTC-06:00)

ISS - Pass Details

Date: 18 November 2019
Orbit: 411 x 421 km, 51.6° (Epoch: 10 December)

Event Time Altitude Azimuth Distance (km) Brightness Sun altitude
Rises 19:07:02 0° 224° (SW) 2,339 0.9 -23.4°
Reaches altitude 10° 19:09:07 10° 224° (SW) 1,482 -0.3 -23.8°
Enters shadow 19:11:05 33° 225° (SW) 713 -2.2 -24.2°
